Погода в Яшкуле

Погода в Яшкуле : погода сейчас, прогноз погоды и архив. Всё, что Вы хотите узнать о погоде в Яшкуле!

Хотите узнать прогноз погоды в Яшкуле? Тогда Вам сюда: Погода в Яшкуле

Поиск расширенной информации на нашем сайте:

Другие новости

Новости СМИ2

Главная страница сайта

Новости сайта

03.07.2017

Напоминаем, что на нашем специализированном сайте Метеоцентр.Азия вы можете получить высокодетализированные автоматические прогнозы погоды по пунктам России, СНГ и мира в авиационном формате (включающие направление и скорость ветра, видимость, явления погоды, количество и форму облачности, нижнюю и верхнюю границу облачности).

Рекомендуем: Одн-2003 - противогололедные материалы.

Погода в Яшкуле - сегодня

Время (UTC), дата Ветер
(°,м/с) 
Видим.   Явления Облачность Т
(°С)
Тd
(°С)
f(%) Тe
(°С)
Pmin
(гПа)
dP
(гПа)
Po
(мм)
O2
(г/м3)
Тmin Tmax R s Состояние
почвы
09 13.01.18 010 (С) 6{11}  20000 м    10/0 средняя 
[Ac As]
-5.8 -9.6 74 -10  1034.1  0.2  776  321           
12 13.01.18 020 (С) 5{11}  20000 м    10/0 средняя 
[Ac As]
-4.8 -9.8 68 -9  1034.5  0.4  777  320           
15 13.01.18 030 (СВ) 20000 м    10/0 средняя 
[Ac As]
-6 -9.9 74 -10  1036  1.5  778  321    -4.8       
18 13.01.18 040 (СВ) 20000 м    10/0 средняя 
[Ac As]
-7.5 -10.2 81 -12  1037.1  779  324           
21 13.01.18 050 (СВ) 20000 м    10/0 средняя 
[Ac As]
-8.6 -10.8 84 -13  1036.8  -0.3  778  325           
00 14.01.18 040 (СВ) 20000 м    10/0 средняя 
[Ac As]
-10.8 -12.3 89 -16  1036.6  -0.2  778  328           
03 14.01.18 050 (СВ) 20000 м    10/6 300 м средняя 
[St|Ac As]
-11.9 -13.8 86 -16  1036.6  0.1  778  329  -11.9         
06 14.01.18 050 (СВ) 20000 м    ясно 
-12.9 -15.9 78 -17  1037.1  0.5  779  331  -13.6         
09 14.01.18 060 (СВ) 20000 м    ясно 
-8 -14.7 59 -12  1036  -1.2  778  324           
12 14.01.18 050 (СВ) 20000 м    ясно 
-6 -15 49 -10  1035.2  -0.8  777  321           
15 14.01.18 050 (СВ) 20000 м    ясно 
-9.5 -14.6 66 -12  1035.6  0.5  777  326    -5.8       
18 14.01.18 060 (СВ) 20000 м    ясно 
-12.7 -15.9 77 -17  1036  0.4  778  330           
21 14.01.18 070 (В) 20000 м    ясно 
-14.4 -17 81 -19  1035.8  -0.2  778  332           
00 15.01.18 050 (СВ) 20000 м    10/0 средняя 
[Ac As]
-12.8 -14.2 89 -16  1035.9  0.1  778  330           
03 15.01.18 040 (СВ) 20000 м    10/0 средняя 
[Ac As]
-10.9 -12.2 90 -13  1036  -0.1  778  328  -14.7         
06 15.01.18 070 (В) 20000 м    10/0 средняя 
[Ac As]
-9 -10 92 -11  1036.7  0.8  778  325           
09 15.01.18 070 (В) 20000 м    10/0 средняя 
[Ac As]
-6.1 -6.8 95 -11  1036.1  -0.7  778  321           
12 15.01.18 070 (В) 7-10{11}  20000 м    8/0 средняя 
[Ac trans]
-4 -8.6 70 -9  1035.4  -0.7  777  319           
15 15.01.18 070 (В) 4{10}  20000 м    8/0 средняя 
[Ac trans]
-6.6 -9.1 82 -10  1036.4  778  322    -3.8       
18 15.01.18 080 (В) 20000 м    10/0 средняя 
[Ac As]
-7.4 -9.4 86 -11  1037.1  0.7  779  323           
21 15.01.18 080 (В) 20000 м    10/0 средняя 
[Ac As]
-7.8 -9.5 88 -11  1036.7  -0.4  778  324           
00 16.01.18 060 (СВ) 20000 м    10/0 средняя 
[Ac As]
-9.2 -10.2 92 -13  1036.3  -0.4  778  325           
03 16.01.18 070 (В) 20000 м    10/0 средняя 
[Ac As]
-10.6 -12 89 -14  1035.3  -1  777  327  -10.6         
06 16.01.18 080 (В) 20000 м    8/0 средняя 
[Ac trans]
-11.7 -13.9 84 -15  1035.1  -0.2  777  328  -12         
09 16.01.18 100 (В) 20000 м    6/0 средняя 
[Ac trans]
-5.5 -10.7 67 -8  1033.4  -1.7  776  320           
Время (UTC), дата Ветер
(°,м/с) 
Видим.   Явления Облачность Т
(°С)
Тd
(°С)
f(%) Тe
(°С)
Pmin
(гПа)
dP
(гПа)
Po
(мм)
O2
(г/м3)
Тmin Tmax R s Состояние
почвы

Для получения пояснительной информации подведите курсор к названию столбца.

ПОГОДА в Яшкуле - архив

Всё, что Вы хотите узнать о погоде в Яшкуле - удобно и подробно!

Выберите нужную дату (начиная с 1 января 2015* года) и нажмите кнопку "Найти".
Будут отображены архивные сводки погоды по пункту Яшкуль, начиная с указанной даты.


Отображать данные в формате CSV (для использования в таблицах Excel)


Внимание! Наш архив погоды предназначен исключительно для личного некоммерческого использования в познавательных целях. Если Вам необходимы официальные справки о состоянии погоды (для производственных, юридических, коммерческих и т.п. целей), обращайтесь в органы Росгидромета.

*Примечание: данная дата относится к архиву по метеостанциям СССР (Россия, СНГ, Балтия).
Архив по метеостанциям Зарубежной Европы и Азии (кроме Китая) хранится 10 дней, по другим регионам земного шара (Китай, Африка, Америка, Австралия, Океания) - 1 день.

Яшкуль - район местоположения метеостанции


Название, широта, долгота, высота метеостанции:
Яшкуль 46.2°ш. 45.3°д. -7 м над ур. моря [Российская Федерация]

Дополнительная информация

В oтличие oт бoльшинства пoгoдных сайтoв мы публикуем пoдрoбную метеoинфoрмацию в детальнoм прoфессиoнальнoм фoрмате.

Характеристики температуры и влажнoсти вoздуха измеряются на высoте 2 м в тени вдали oт зданий и деревьев.
Скoрoсть ветра измеряется на высoте 10 м (на урoвне рoста челoвека скoрoсть ветра ниже в 1.5-2 раза). Если метеoстанция нахoдится в гoрoде или в лесу, тo скoрoсть ветра занижена на 2-4 м/с пo сравнению с oткрытым местoм. Скoрoсть ветра над акватoриями крупных рек и oзёр, а также на вершинах хoлмoв на 2-5 м/с выше, чем в oбычных услoвиях.
Атмoсфернoе давление в разных тoчках местнoсти мoжет значительнo oтличаться oт давления на метеoстанции, в зависимoсти oт услoвий рельефа (при пoдъёме на 10 м давление пoнижается примернo на 1 мм рт.ст.).